Regional Weather Roundup
Issued by NWS

Home | Current Version | Previous Version | Graphics & Text | Print | Product List | Glossary On
Versions: 1 2 3 4 5 6 7 8 9 10 11 12 13 14 15 16 17 18 19 20 21 22 23 24 25 26 27 28 29 30 31 32 33 34 35 36 37 38 39 40 41 42 43 44 45 46 47 48 49 50
000
ASUS45 KABQ 261410
RWRNM
NEW MEXICO REGIONAL WEATHER ROUNDUP
NATIONAL WEATHER SERVICE ALBUQUERQUE NM
800 AM MDT SAT MAY 26 2018

NOTE: "FAIR" MEANS FEW OR NO CLOUDS BELOW 12,000 FEET AGL WITH NO
       SIGNIFICANT WEATHER OR OBSTRUCTIONS TO VISION.

      THIS PRODUCT IS RELEASED AS TWO VERSIONS.  ONE VERSION NEAR
      THE TOP OF THE HOUR CONTAINING PRELIMINARY DATA FROM ALBUQUERQUE
      AND OTHER STATIONS.  A FINAL VERSION WITH ADDITIONAL DATA IS
      ISSUED ABOUT 10 MINUTES AFTER THE HOUR.

NMZ501-503-504-510>518-261500-
NORTHWEST PLATEAU/NORTHCENTRAL MOUNTAINS

CITY           SKY/WX    TMP DP  RH WIND       PRES   REMARKS
FARMINGTON     FAIR      54  19  25 E10       30.08R
LOS ALAMOS     FAIR      61  10  13 CALM      30.19S
SANTA FE       FAIR      59  17  19 N15       30.12S
TAOS           FAIR      52  15  23 N6        30.22F
ANGEL FIRE     FAIR      40  26  57 CALM      30.30F

$$
NMZ402-403-502-505>509-261500-
WESTCENTRAL MOUNTAINS/SOUTHWEST MOUNTAINS

CITY           SKY/WX    TMP DP  RH WIND       PRES   REMARKS
GALLUP         FAIR      49  18  29 CALM      30.13S
GRANTS         FAIR      52  25  35 CALM      30.17R
SILVER CITY    FAIR      67  22  17 NW7       30.07R

$$
NMZ407-409-411-412-261500-
SOUTHERN DESERTS

CITY           SKY/WX    TMP DP  RH WIND       PRES   REMARKS
DEMING         FAIR      71  21  15 SW8       30.01R
LAS CRUCES     FAIR      74  15  10 CALM      30.02R
HOLLOMAN AFB   FAIR      69  14  12 E3        30.00R
ALAMOGORDO     FAIR      68  25  19 SE3       30.00R
T OR C         FAIR      72  11   9 NE5       30.03R

$$
NMZ519>523-261500-
CENTRAL VALLEYS/CENTRAL HIGHLANDS

CITY           SKY/WX    TMP DP  RH WIND       PRES   REMARKS
ALBUQUERQUE    CLOUDY    65  19  17 N5        30.08R
DOUBLE EAGLE   CLOUDY    61  23  23 VRB5      30.11R
MORIARTY ARPT  FAIR      54  30  39 CALM      30.15R
CLINES CORNERS FAIR      63  15  15 W13       30.18R
BELEN          FAIR      64  14  14 CALM      30.08R
SOCORRO        FAIR      67  19  15 CALM      30.04S

$$
NMZ524>526-539-540-261500-
SOUTHCENTRAL MOUNTAINS

CITY           SKY/WX    TMP DP  RH WIND       PRES   REMARKS
RUIDOSO        NOT AVBL

$$
NMZ527>531-261500-
NORTHEAST HIGHLANDS/NORTHEAST PLAINS

CITY           SKY/WX    TMP DP  RH WIND       PRES   REMARKS
LAS VEGAS      FAIR      58  24  27 NE7       30.14R
RATON          FAIR      56  38  50 E10       30.10R
CLAYTON        FAIR      69  51  52 SW6       30.00R

$$
NMZ532>537-261500-
EASTCENTRAL PLAINS

CITY           SKY/WX    TMP DP  RH WIND       PRES   REMARKS
TUCUMCARI      FAIR      70  47  43 NW5       29.94R
CANNON AFB     FAIR      65  57  75 CALM      29.99R
CLOVIS AIRPORT FAIR      66  55  67 S3        29.99S

$$
NMZ028-029-538-261500-
SOUTHEAST PLAINS

CITY           SKY/WX    TMP DP  RH WIND       PRES   REMARKS
ROSWELL        FAIR      70  42  36 NE5       29.95R
ARTESIA        FAIR      73  45  35 S9G16     29.96R
CARLSBAD       FAIR      73  44  35 SE5       29.92F
HOBBS          SUNNY     72  61  68 S10       29.96R


$$




USA.gov is the U.S. government's official web portal to all federal, state and local government web resources and services.